Theta_e
333 332 333 333 336 335 334 330 329 329 328 328 328 328 329 330 331 332 333 332 332 338 345 349 351 349 346 343 341 340 340 341 340 340 339 337 336 336 336 336 336 336 335
335 332 331 331 335 332 333 329 330 329 328 328 327 327 328 329 330 332 333 333 330 333 339 345 349 350 349 346 342 341 340 340 340 340 339 338 337 336 335 335 336 336 336
334 333 332 331 332 331 329 328 327 327 326 327 327 328 327 327 329 330 331 332 332 328 331 337 342 346 348 348 345 343 341 339 339 340 339 338 337 337 335 335 335 335 335
336 332 331 331 332 331 331 328 327 326 325 324 326 326 326 326 327 328 329 330 331 332 330 331 334 339 343 346 348 347 345 341 340 339 339 338 338 337 336 335 334 335 335
336 334 332 332 329 331 330 330 326 327 324 323 323 324 324 324 326 328 328 328 329 330 332 330 329 330 334 339 344 348 349 347 344 341 340 339 338 337 336 335 335 335 335
336 334 333 332 329 330 329 328 328 325 326 323 324 324 323 325 326 326 327 328 329 328 329 330 331 329 327 332 337 342 347 349 348 346 343 341 339 337 336 335 335 335 335
336 335 334 332 330 330 329 328 327 325 323 323 321 321 323 324 324 325 327 327 327 328 328 328 328 328 328 327 331 336 341 346 347 347 345 343 340 338 336 336 335 335 335
336 337 336 334 331 330 329 327 326 323 324 322 320 317 316 320 320 324 326 326 326 327 327 328 328 328 328 327 326 329 335 339 342 344 343 342 340 339 338 336 336 335 335
319 321 330 335 334 331 330 328 326 326 324 320 324 321 314 312 314 318 320 323 325 324 325 325 326 325 327 327 326 324 322 325 332 338 340 340 340 340 339 338 337 336 335
315 315 321 322 324 334 332 331 329 328 326 325 319 324 325 318 317 317 320 319 321 321 322 322 323 324 324 325 324 321 317 316 320 329 334 337 339 339 338 338 337 336 336
312 314 315 318 317 321 323 332 332 328 329 326 326 320 321 322 317 317 316 321 325 322 323 322 322 322 324 324 324 321 316 314 315 321 326 331 335 337 337 337 337 337 336
307 309 313 314 314 314 315 319 322 331 329 328 328 328 322 320 320 319 317 319 320 324 326 324 323 324 326 324 324 319 315 313 313 316 321 325 329 332 335 336 337 337 336
304 305 308 311 310 311 312 314 318 318 320 320 322 325 326 320 324 325 322 321 321 324 325 323 323 325 326 327 327 319 317 312 312 313 316 319 322 325 329 332 334 335 335
303 304 305 307 309 309 310 311 313 311 312 317 317 318 318 319 319 318 316 316 317 321 324 324 329 324 325 327 326 318 325 313 310 310 312 314 317 319 321 324 326 328 330
300 301 303 304 306 306 307 307 308 307 309 310 311 314 317 318 318 318 318 317 315 311 313 321 320 328 326 328 325 329 330 321 313 310 309 310 313 315 316 318 320 322 322
297 299 299 300 302 304 303 303 303 304 304 306 307 307 309 313 316 317 317 316 316 313 310 316 318 319 321 326 325 326 329 318 311 308 307 307 309 312 314 314 315 314 315
294 295 296 297 298 301 297 297 297 298 299 301 303 304 304 307 307 309 315 316 315 315 311 315 318 319 319 319 319 322 326 327 325 308 305 304 306 307 309 309 309 310 310
292 293 293 294 295 297 294 294 294 295 295 296 298 300 301 304 304 306 307 308 311 313 313 311 314 315 317 319 319 319 321 321 320 309 305 304 304 304 304 303 304 306 308
290 291 291 291 292 294 291 292 292 292 293 295 296 298 299 301 302 302 303 303 304 307 310 307 307 313 315 318 318 315 310 308 307 306 303 303 303 304 303 303 304 303 302
289 289 290 290 291 291 290 290 290 290 291 292 295 295 296 299 297 297 297 296 297 299 303 305 306 307 309 314 316 314 309 308 306 304 303 300 300 302 301 300 300 300 299
288 288 288 289 289 290 289 289 289 289 289 289 291 293 293 295 295 294 294 292 293 295 297 301 303 304 303 303 305 306 307 302 299 298 296 296 297 297 297 297 298 297 296
286 286 286 288 288 289 289 289 289 288 288 288 288 290 291 293 292 292 291 290 290 293 293 294 296 297 301 303 300 301 297 293 293 294 294 290 294 292 293 294 295 294 294
284 284 287 288 287 288 289 289 289 288 287 287 287 287 288 290 291 291 290 289 289 290 290 291 291 293 293 295 294 294 298 299 298 293 292 287 289 287 290 293 293 293 293
285 286 287 287 287 287 288 288 288 288 286 286 287 287 287 287 289 289 290 288 288 288 289 290 290 291 292 293 292 294 294 295 290 289 291 287 286 285 287 291 292 292 291
286 286 287 287 286 286 288 288 288 287 285 285 286 287 287 287 288 289 287 286 286 285 288 289 289 289 289 290 290 291 288 288 288 286 286 287 285 283 284 285 288 290 290
286 286 285 286 287 286 287 288 288 286 284 285 286 286 286 286 286 286 285 284 282 284 284 284 285 286 287 288 289 291 291 289 287 287 286 286 284 284 281 283 285 286 286
Wind_Speed
6 4 4 4 6 5 5 4 4 4 5 5 5 5 6 6 6 4 4 9 10 15 19 20 19 19 18 18 17 17 17 17 17 17 16 16 15 14 14 13 12 11 11
6 6 5 5 7 6 5 4 4 4 5 4 5 5 8 6 6 7 5 5 9 12 17 20 20 19 19 19 19 18 19 19 18 18 17 17 16 15 14 13 13 14 14
7 7 6 6 7 5 5 4 4 3 4 4 7 6 4 7 7 7 6 5 5 10 14 16 17 18 18 19 19 19 19 20 20 19 19 18 17 16 16 16 16 16 16
7 6 6 7 6 6 6 5 4 4 5 4 6 6 5 4 8 7 6 5 6 6 9 18 17 18 18 19 20 20 20 21 21 21 20 19 18 17 17 17 17 17 17
8 7 7 7 5 6 6 6 4 5 5 5 6 6 5 6 9 8 9 9 9 7 7 10 15 20 21 21 22 23 23 22 22 21 20 19 19 19 19 19 19 18 18
9 8 8 8 6 6 6 5 8 5 6 5 6 7 5 7 6 7 9 8 9 8 9 10 8 9 19 23 23 24 25 25 24 23 22 21 21 21 21 21 20 19 19
10 10 9 9 7 9 9 8 5 7 5 4 0 4 7 10 11 10 9 8 11 10 9 9 7 7 8 17 22 24 26 25 25 25 24 22 22 22 21 21 20 21 20
7 8 10 10 9 8 9 8 9 5 6 7 5 2 4 5 4 8 8 9 13 9 10 10 10 11 10 8 10 19 23 24 25 25 24 23 22 23 22 21 21 21 20
14 15 11 8 9 7 9 10 10 13 10 6 12 5 2 6 2 2 4 5 7 4 6 8 10 9 10 10 9 10 17 20 24 24 24 23 23 22 22 21 22 21 20
13 14 11 11 13 7 9 9 9 12 11 11 2 8 10 4 7 11 4 4 4 6 8 5 6 7 8 8 10 14 14 17 21 24 24 24 23 23 22 22 21 20 20
12 14 13 12 13 11 15 10 11 11 10 10 7 3 6 7 3 9 13 9 6 5 5 5 6 6 8 9 9 10 16 19 20 22 24 24 23 22 22 21 21 20 20
7 11 12 11 10 11 12 12 15 9 6 7 6 5 4 3 3 6 8 10 10 10 6 5 5 7 7 7 10 16 16 17 19 22 22 22 21 21 21 21 20 19 18
9 11 10 11 9 11 11 13 13 12 11 5 3 3 1 3 2 2 7 10 13 10 8 4 6 7 9 9 9 13 15 18 19 18 20 19 19 20 20 19 19 19 18
9 12 11 10 10 9 9 11 8 11 14 8 6 3 1 3 2 1 1 5 9 9 9 12 7 6 8 9 11 15 11 16 17 18 19 19 20 20 18 17 16 16 16
10 12 11 10 10 11 10 8 4 7 5 9 7 7 6 6 3 3 3 3 1 6 7 3 4 5 6 7 10 11 12 14 17 17 18 19 19 20 19 16 16 15 14
12 13 13 11 10 8 8 8 8 6 7 4 6 10 6 5 8 4 6 6 6 7 9 2 5 5 8 5 8 11 14 12 12 16 17 18 18 18 16 15 15 12 12
11 11 12 11 11 9 12 12 12 11 10 9 7 6 8 8 8 8 5 5 5 7 11 10 8 9 10 5 5 7 8 12 8 11 13 14 16 16 16 15 13 12 12
10 9 9 10 11 11 12 13 13 13 14 14 14 14 12 8 9 8 8 10 9 8 9 17 11 9 12 8 8 5 4 3 5 6 11 10 7 6 6 8 10 12 12
9 9 9 9 10 9 10 10 10 12 13 13 13 13 14 14 12 9 8 8 8 9 7 9 11 10 10 10 11 6 2 0 5 3 7 7 12 8 7 6 9 11 15
8 9 8 8 8 8 9 10 10 10 10 11 12 12 13 13 12 14 11 10 10 9 10 10 10 8 7 9 9 11 6 3 3 3 5 4 5 3 7 15 13 11 14
8 8 7 6 6 8 9 12 10 10 11 11 9 9 10 15 11 9 8 11 12 10 8 9 10 6 6 6 8 5 6 3 2 1 1 4 4 1 5 8 12 16 16
7 7 7 10 11 8 16 18 17 13 10 11 11 10 10 13 12 13 12 11 9 9 10 8 6 9 9 8 8 9 4 4 4 2 2 1 1 3 3 3 9 13 13
6 6 8 12 12 12 15 16 16 12 8 10 11 12 10 9 12 11 11 12 11 10 7 8 11 9 10 9 9 9 9 7 3 2 2 1 2 3 2 4 9 10 12
9 12 12 12 10 10 17 15 15 12 9 9 9 11 12 13 11 12 13 11 12 10 10 8 9 10 10 10 8 6 8 8 4 2 1 1 2 2 3 3 11 10 12
11 11 13 14 12 11 14 15 14 14 8 8 8 11 11 12 18 21 15 15 13 11 9 13 14 16 16 15 14 7 4 2 4 2 1 3 1 3 1 3 3 11 10
12 11 12 10 13 13 17 16 16 9 10 9 12 13 16 15 20 20 16 15 16 12 10 11 10 14 12 11 14 9 5 5 2 4 2 4 2 2 3 1 1 4 3
Wind_Direction
195 190 205 199 224 227 228 225 228 234 240 246 250 243 252 260 256 257 264 268 242 230 230 230 229 229 231 230 228 228 231 231 231 233 231 232 234 236 238 239 241 239 238
199 194 202 208 218 215 222 211 223 238 252 242 258 253 261 255 260 256 260 270 252 236 234 235 236 235 235 235 234 231 231 233 234 234 234 234 236 235 235 236 235 236 234
205 201 204 206 214 203 204 208 232 233 254 251 254 256 257 267 264 266 262 260 259 240 243 245 246 245 243 242 241 238 237 236 235 236 235 235 235 234 233 232 232 233 234
223 212 217 222 211 196 196 202 205 234 244 251 266 261 258 262 269 265 265 253 248 246 237 239 245 247 247 246 246 245 243 242 240 236 235 234 236 234 234 234 233 230 231
229 229 227 228 198 209 210 205 203 207 221 231 249 264 262 258 264 268 264 264 257 243 245 245 236 241 245 247 248 248 247 245 244 242 239 234 232 232 231 231 232 233 230
220 219 238 238 203 213 214 204 216 202 217 216 247 258 244 252 252 249 260 260 255 244 242 245 246 243 239 245 246 247 248 247 246 243 241 237 233 231 230 230 230 231 230
219 217 230 237 217 222 228 213 213 219 231 181 259 269 254 238 241 240 241 243 252 246 241 240 239 244 248 238 243 246 249 248 248 246 242 238 235 232 231 231 232 232 232
267 238 238 241 223 226 224 205 201 211 226 179 193 173 285 278 238 229 234 231 243 241 245 241 244 241 241 244 237 238 242 245 246 246 243 238 235 234 234 232 233 235 234
28 13 343 274 244 215 234 229 217 213 230 210 202 186 225 230 325 241 250 238 249 234 244 249 254 255 256 254 250 242 236 236 241 244 245 240 237 236 235 233 233 232 234
12 20 3 9 355 283 227 232 228 236 236 234 188 223 235 167 252 283 225 241 221 232 232 227 239 246 243 250 247 246 243 234 238 240 241 240 237 236 233 232 234 233 232
7 23 5 7 19 8 348 294 238 214 225 233 230 165 232 249 228 245 275 256 250 236 222 218 223 234 234 229 239 241 236 239 241 240 242 239 237 236 234 232 229 230 231
343 3 1 28 0 33 360 347 332 284 219 238 239 233 194 202 218 232 255 276 269 270 259 222 227 248 249 233 241 244 239 238 239 240 240 237 237 235 232 229 229 227 225
9 360 342 12 11 21 12 357 333 326 330 44 353 333 103 91 40 286 291 283 280 282 277 229 225 238 254 258 254 237 243 243 247 245 243 238 234 231 229 225 226 225 226
346 346 352 3 5 11 7 360 12 357 12 336 342 290 2 268 119 241 120 339 312 282 283 280 265 231 235 245 252 242 247 236 239 241 241 239 231 226 223 216 224 228 228
347 344 348 358 355 25 2 352 1 9 344 347 323 310 298 305 260 245 229 179 295 308 315 18 320 289 270 259 252 249 248 247 241 238 237 235 231 223 213 209 224 223 215
351 347 352 353 3 14 7 5 13 350 327 345 344 319 344 329 284 229 242 242 233 249 268 282 272 284 321 301 286 279 268 246 248 245 240 234 224 220 213 207 206 204 214
352 347 346 346 359 11 7 5 359 346 343 349 328 338 342 336 318 320 282 246 261 245 267 278 262 271 271 286 306 307 273 277 267 246 238 235 228 218 209 204 193 211 216
348 345 343 348 359 4 8 3 353 347 343 344 343 344 336 327 321 330 344 330 304 297 269 278 282 274 278 275 258 297 325 283 271 298 278 248 231 236 211 184 196 207 197
339 340 347 356 354 352 10 360 349 342 339 338 338 339 332 330 329 349 354 337 334 323 281 287 299 302 291 275 279 263 178 172 102 150 107 241 164 174 181 198 178 167 148
333 338 343 346 352 339 6 352 348 343 338 339 335 335 335 336 3 353 345 346 338 327 316 307 297 290 302 303 264 265 245 226 180 306 158 272 52 218 157 171 152 149 130
339 329 330 333 345 355 0 348 346 345 340 335 326 325 329 325 343 342 349 336 330 327 328 316 312 311 312 326 331 338 313 330 25 144 153 40 34 154 107 105 129 124 120
332 330 329 355 357 351 347 347 347 339 329 330 328 325 322 319 332 320 330 325 314 318 320 319 318 326 327 339 356 337 323 338 325 349 34 77 100 56 37 52 124 119 128
324 330 342 353 351 342 342 338 339 334 320 316 318 320 320 322 316 315 312 315 316 313 300 310 310 317 320 337 331 320 323 316 298 319 96 139 57 62 18 111 108 111 119
342 348 345 342 338 332 338 337 328 327 313 302 300 304 306 310 310 310 312 313 306 303 302 297 293 301 304 306 299 292 293 295 290 302 339 222 349 99 67 342 120 117 115
340 337 338 336 337 326 321 327 324 325 311 303 301 310 302 304 307 313 313 308 302 298 286 286 291 291 292 288 284 298 285 298 298 273 149 134 130 75 28 75 22 108 100
333 335 330 329 330 331 329 328 319 321 313 315 318 312 311 307 311 312 310 309 305 303 304 306 308 308 296 283 282 265 258 247 230 302 246 116 135 134 110 0 22 77 110